Presure
182 180 175 143 175 183 184 141 189 160 203 206 184 155 145 132 113 122 135 93 198 132 202 206 163 175 143 216 162 187 121 239
186 177 187 184 181 174 198 189 187 128 125 132 181 110 201 205 206 205 152 205 211 182 133 145 190 115 202 199 212 129 244 244
175 161 171 177 173 183 171 187 191 201 185 197 132 189 189 187 206 205 207 209 208 152 153 194 201 197 219 191 204 190 159 238
145 171 152 182 177 187 190 192 178 191 207 202 190 187 203 202 206 214 210 204 206 205 209 213 209 222 109 212 213 240 160 193
178 168 177 180 183 184 193 183 185 193 169 192 194 198 183 204 197 210 201 212 211 147 190 126 169 111 213 160 214 220 250 240
176 181 177 175 188 185 193 191 187 157 183 199 192 184 195 175 202 198 186 178 191 205 207 211 204 221 196 182 203 211 222 119
182 168 171 170 173 148 167 159 153 156 163 188 204 209 193 182 187 191 163 183 203 184 212 204 209 140 212 209 215 183 217 232
178 170 172 178 191 183 124 130 177 206 200 194 168 161 195 172 191 175 188 213 212 201 211 198 215 211 210 211 210 222 225 235
185 190 176 174 202 188 189 195 214 138 168 183 134 170 211 139 167 169 195 131 205 214 217 207 207 216 195 193 179 226 209 236
176 181 190 191 195 186 190 209 195 184 191 188 206 195 159 148 174 194 204 217 218 213 228 212 220 208 208 202 212 204 212 237
183 190 182 189 189 192 189 169 209 203 206 193 182 178 187 188 186 174 136 191 221 217 220 219 201 188 174 217 232 198 224 203
204 195 180 214 182 184 195 197 197 215 201 199 201 184 145 207 206 232 193 216 123 185 194 178 182 172 186 212 207 193 211 191
211 209 214 208 214 212 177 196 196 195 214 216 204 178 188 188 190 203 184 189 202 207 203 166 180 175 196 213 161 194 155 217
208 192 209 210 218 205 190 222 215 225 195 205 204 200 210 214 207 210 198 185 98 197 235 176 172 188 197 225 235 225 221 178
221 212 210 216 212 201 208 199 201 213 223 165 200 204 228 215 197 186 201 219 188 172 181 182 158 206 169 148 201 185 198 172
198 200 203 211 215 209 208 206 202 211 223 214 198 191 193 208 231 184 216 183 217 199 197 196 188 176 188 202 174 188 219 237
230 214 207 215 216 215 206 215 195 207 219 208 218 214 212 201 225 214 227 252 241 228 222 243 214 201 204 149 186 196 205 223
228 234 220 216 200 216 223 204 206 209 227 204 212 203 238 229 236 229 235 277 237 220 211 241 218 206 206 203 225 210 208 244
223 227 229 220 221 215 219 214 209 205 216 214 214 221 207 235 240 233 270 283 232 239 234 217 218 228 271 230 225 207 251 208
224 238 266 220 211 209 193 224 226 226 223 210 224 236 245 238 227 287 367 352 259 240 252 182 223 244 363 260 205 215 206 249
Wind_Speed
60 60 61 56 58 58 58 59 57 52 56 57 60 59 57 58 47 50 57 28 61 51 60 60 56 55 57 56 61 51 37 44
61 62 61 63 62 62 57 59 59 54 55 59 56 43 56 57 59 59 57 63 61 56 45 56 61 56 59 61 61 49 44 47
63 60 65 64 64 64 62 63 61 59 59 61 49 61 61 58 57 59 60 63 62 43 49 61 61 60 51 58 62 46 52 45
53 67 56 68 66 65 65 64 61 61 59 60 59 60 60 59 58 56 58 59 62 63 62 60 58 48 57 52 50 38 56 49
73 66 70 69 68 69 67 66 63 61 58 65 64 61 60 57 58 56 58 58 58 53 59 50 54 58 55 55 53 51 31 32
76 75 73 72 67 70 70 66 62 60 60 59 60 61 63 57 62 59 55 53 60 61 62 62 61 53 56 52 56 45 35 46
71 79 75 73 70 56 61 58 58 60 58 62 61 60 62 62 63 62 53 57 64 61 62 62 61 42 59 57 52 49 46 38
76 77 83 81 78 78 45 49 60 69 64 63 64 65 70 63 66 61 66 68 65 61 63 60 58 61 61 57 52 47 42 37
80 79 86 78 75 84 74 72 72 56 56 55 49 54 66 44 61 58 68 41 67 66 64 62 62 60 54 52 50 49 48 37
84 86 85 83 82 86 82 76 75 63 67 60 65 60 63 52 66 67 68 70 68 66 66 63 62 57 56 56 55 51 49 45
90 91 85 86 85 84 85 69 73 68 72 63 56 58 54 64 61 63 45 59 69 63 64 60 53 55 51 59 59 53 55 43
87 85 82 75 79 77 89 79 82 75 75 70 64 58 45 61 65 66 59 63 53 48 48 44 50 56 57 62 49 48 58 38
84 84 79 82 78 77 53 87 84 79 75 74 71 51 61 64 63 63 52 59 64 62 59 56 56 61 61 63 49 56 60 59
89 77 84 80 75 82 65 68 74 67 76 77 75 71 74 72 76 72 67 52 36 51 47 54 49 56 67 67 71 62 63 54
87 89 86 79 78 80 83 85 82 76 71 60 64 65 71 75 70 62 74 66 55 56 51 46 55 66 36 59 56 49 50 51
93 89 91 81 80 84 80 84 78 80 75 80 78 69 74 79 74 67 62 52 52 63 59 54 60 59 66 79 48 51 47 62
86 95 96 90 85 82 85 78 78 79 79 79 79 80 78 72 69 63 63 58 56 57 57 61 77 81 89 60 53 60 62 69
88 85 91 92 88 86 81 82 84 84 78 74 79 76 79 73 71 64 69 69 58 62 61 59 77 83 85 65 91 74 69 67
89 86 87 95 86 91 86 84 81 73 81 80 80 79 74 75 73 65 77 73 61 58 56 60 53 57 76 92 95 77 64 66
88 85 74 92 91 87 69 80 75 77 81 77 78 78 77 73 69 76 53 43 55 53 46 50 49 55 72 66 77 79 60 57
Wind_Direction
266 266 266 271 269 269 271 268 276 274 282 283 276 276 274 272 267 274 278 276 287 280 291 294 282 289 285 296 285 285 260 280
268 267 272 273 272 270 277 276 276 266 267 269 282 268 285 286 286 285 284 289 289 288 271 289 292 266 296 296 298 270 282 281
268 269 268 272 272 276 272 278 280 283 280 281 274 281 282 283 286 286 286 289 290 281 287 290 292 294 294 295 300 277 268 279
268 271 272 271 272 274 276 280 276 280 284 283 280 281 284 285 286 283 287 288 288 289 291 290 292 293 271 294 293 299 284 276
271 267 269 271 273 277 278 276 278 280 278 282 282 282 281 285 284 284 286 284 285 286 286 284 284 269 290 286 296 293 291 289
267 269 269 271 271 273 274 276 281 279 284 284 287 285 285 273 286 285 284 283 291 288 288 288 290 288 292 293 293 292 287 281
259 269 270 271 269 271 276 272 269 274 274 287 285 283 283 281 282 286 275 285 289 285 287 286 287 276 287 290 291 289 289 287
259 266 270 269 269 269 271 273 275 278 277 279 281 279 282 278 282 284 284 287 286 289 286 289 287 286 289 291 291 287 290 287
263 266 264 271 273 271 271 272 275 278 273 276 278 270 281 277 278 279 284 265 289 287 285 288 289 285 295 295 279 288 282 281
265 264 264 264 266 273 272 275 274 276 274 274 271 272 273 283 280 280 284 283 284 287 282 287 286 293 295 291 287 285 283 283
259 261 267 267 269 270 275 274 276 275 276 273 272 271 261 273 275 274 271 284 286 286 287 287 293 290 277 297 290 284 284 269
262 263 267 270 272 273 270 274 278 273 277 277 272 273 272 276 278 279 280 285 275 287 289 286 292 284 287 294 282 278 287 264
259 259 262 261 264 268 270 271 277 279 273 273 277 268 281 283 281 278 284 289 288 287 290 279 286 291 286 285 272 284 266 282
258 267 261 261 264 265 270 267 269 272 279 277 277 278 277 272 278 278 286 288 269 278 291 278 289 294 283 283 287 282 288 268
261 260 262 264 263 268 266 271 273 269 272 271 269 274 274 272 282 280 286 279 275 282 276 265 267 286 256 263 278 269 267 270
269 269 266 264 262 263 266 270 276 271 270 270 279 281 283 278 281 280 279 273 263 274 267 245 249 269 274 267 269 275 280 283
255 258 265 263 263 263 267 268 277 274 272 275 275 275 277 282 281 280 278 274 257 253 243 241 231 257 252 264 270 274 275 279
254 257 261 263 272 265 264 271 271 272 273 275 276 279 279 281 283 283 282 281 256 253 264 245 240 249 259 251 256 267 271 270
256 257 256 259 262 264 265 266 270 274 273 276 278 279 282 283 283 281 282 277 261 237 241 241 249 250 246 251 252 263 250 264
251 251 256 256 263 268 274 267 268 270 271 277 276 279 281 284 282 285 271 266 228 235 236 258 248 263 242 234 253 253 257 258